Whitefield, NH

2:06 AM EDT on May 29, 2017 (GMT -0400)
Mount Washington Regional

Weather History for KHIE - March, 2014

Change the Weather History Date:

Monday, March 3, 2014

  Actual Average Record
Temperature  
Mean Temperature 2 °F -  
Max Temperature 15 °F 31 °F 57 °F (2002)
Min Temperature -11 °F 7 °F -13 °F (2011)
Degree Days  
Heating Degree Days 63    
Moisture  
Dew Point -11 °F    
Average Humidity 60    
Maximum Humidity 83    
Minimum Humidity 35    
Precipitation  
Precipitation 0.00 in - - ()
Sea Level Pressure  
Sea Level Pressure 30.18 in    
Wind  
Wind Speed 3 mph (West)    
Max Wind Speed 15 mph    
Max Gust Speed 20 mph    
Visibility 10 miles    
Events      
Averages and records for this station are not official NWS values.
T = Trace of Precipitation, MM = Missing Value Source: NWS Daily Summary

Daily Weather History Graph

Daily Weather History Graph

Search for Another Location

Airport or City:

Trip Planner

Search our weather history database for the weather conditions in past years. The results will help you decide how hot, cold, wet, or windy it might be!

Date:

Astronomy

Mar. 03, 2014 Rise Set
Actual Time 6:19 AM EST 5:36 PM EST
Civil Twilight 5:50 AM EST 6:05 PM EST
Nautical Twilight 5:17 AM EST 6:39 PM EST
Astronomical Twilight 4:43 AM EST 7:13 PM EST
Moon 7:19 AM EST (3/3) 8:44 PM EST (3/3)
Length of Visible Light 12h 14m
Length of Day
11h 16m
Waxing Crescent, 8% of the Moon is Illuminated
Mar 3
Waxing Crescent
Mar 8
First Quarter
Mar 16
Full
Mar 23
Last Quarter
Mar 30
New

Hourly Weather History & Observations

Time (EST) Temp. Windchill Dew Point Humidity Pressure Visibility Wind Dir Wind Speed Gust Speed Precip Events Conditions
12:52 AM -2.0 °F - -7.1 °F 79% 30.07 in 10.0 mi Calm Calm - N/A   Clear
1:52 AM -6.0 °F - -11.0 °F 79% 30.07 in 10.0 mi Calm Calm - N/A   Clear
2:52 AM -7.1 °F - -11.9 °F 79% 30.06 in 10.0 mi Calm Calm - N/A   Clear
3:52 AM -9.0 °F - -14.1 °F 79% 30.07 in 10.0 mi Calm Calm - N/A   Clear
4:52 AM -11.0 °F - -17.0 °F 75% 30.10 in 6.0 mi Calm Calm - N/A   Haze
5:52 AM -11.0 °F - -17.0 °F 75% 30.11 in 10.0 mi Calm Calm - N/A   Clear
6:52 AM -11.9 °F - -18.0 °F 74% 30.10 in 9.0 mi Calm Calm - N/A   Clear
7:52 AM -7.1 °F - -11.0 °F 83% 30.13 in 7.0 mi Calm Calm - N/A   Clear
8:52 AM 5.0 °F -2.1 °F -2.0 °F 73% 30.15 in 8.0 mi West 3.5 mph - N/A   Clear
9:52 AM 10.0 °F -3.7 °F -8.0 °F 44% 30.14 in 10.0 mi West 10.4 mph - N/A   Clear
10:52 AM 12.0 °F - -8.0 °F 41% 30.15 in 10.0 mi North - - N/A   Partly Cloudy
11:52 AM 12.9 °F -2.8 °F -9.0 °F 37% 30.14 in 10.0 mi WNW 15.0 mph - N/A   Clear
12:52 PM 14.0 °F -0.8 °F -9.0 °F 35% 30.15 in 10.0 mi West 13.8 mph 19.6 mph N/A   Clear
1:52 PM 14.0 °F 2.9 °F -9.0 °F 35% 30.16 in 10.0 mi West 8.1 mph - N/A   Clear
2:52 PM 15.1 °F 0.5 °F -8.0 °F 36% 30.18 in 10.0 mi NW 13.8 mph - N/A   Clear
3:52 PM 14.0 °F 2.0 °F -9.0 °F 35% 30.19 in 10.0 mi West 9.2 mph 18.4 mph N/A   Clear
4:52 PM 12.9 °F -0.2 °F -9.9 °F 35% 30.22 in 10.0 mi West 10.4 mph - N/A   Clear
5:52 PM 9.0 °F -2.2 °F -9.9 °F 42% 30.25 in 10.0 mi WNW 6.9 mph - N/A   Clear
6:52 PM 3.9 °F -3.4 °F -9.9 °F 53% 30.29 in 10.0 mi SSE 3.5 mph - N/A   Clear
7:52 PM -0.9 °F - -11.0 °F 62% 30.30 in 10.0 mi Calm Calm - N/A   Clear
8:52 PM -4.0 °F - -11.0 °F 72% 30.31 in 10.0 mi Calm Calm - N/A   Clear
9:52 PM -7.1 °F - -15.0 °F 68% 30.32 in 10.0 mi Calm Calm - N/A   Clear
10:52 PM -9.0 °F - -16.1 °F 71% 30.32 in 10.0 mi Calm Calm - N/A   Clear
11:52 PM -11.0 °F - -17.0 °F 75% 30.33 in 10.0 mi Calm Calm - N/A   Clear